TimeMST,TemperatureF,Dew PointF,Humidity,Sea Level PressureIn,VisibilityMPH,Wind Direction,Wind SpeedMPH,Gust SpeedMPH,PrecipitationIn,Events,Conditions,WindDirDegrees,DateUTC
12:25 AM,30.2,26.6,86,29.95,10.0,SSW,8.1,-,N/A,,Scattered Clouds,210,2012-12-03 07:25:00
12:56 AM,28.0,25.2,89,29.91,10.0,South,8.1,-,N/A,,Clear,180,2012-12-03 07:56:00
1:56 AM,26.1,23.0,88,29.97,10.0,SSE,6.9,-,N/A,,Clear,150,2012-12-03 08:56:00
2:56 AM,27.1,23.0,84,29.99,10.0,South,15.0,-,N/A,,Clear,180,2012-12-03 09:56:00
3:56 AM,28.0,24.1,85,30.02,10.0,South,11.5,-,N/A,,Mostly Cloudy,170,2012-12-03 10:56:00
4:09 AM,26.6,23.0,86,30.07,10.0,SSE,10.4,-,N/A,,Scattered Clouds,160,2012-12-03 11:09:00
4:56 AM,28.0,23.0,81,30.04,10.0,SE,10.4,-,N/A,,Scattered Clouds,140,2012-12-03 11:56:00
5:56 AM,28.0,22.1,78,30.06,10.0,South,10.4,-,N/A,,Partly Cloudy,180,2012-12-03 12:56:00
7:56 AM,27.1,19.0,72,30.13,10.0,South,10.4,-,N/A,,Clear,180,2012-12-03 14:56:00
8:56 AM,29.1,21.0,72,30.12,10.0,South,10.4,-,N/A,,Mostly Cloudy,170,2012-12-03 15:56:00
9:56 AM,30.0,22.1,72,30.16,10.0,SSE,8.1,-,N/A,,Overcast,150,2012-12-03 16:56:00
10:40 AM,30.2,23.0,75,30.17,10.0,South,9.2,-,N/A,,Mostly Cloudy,190,2012-12-03 17:40:00
10:56 AM,31.1,23.0,72,30.16,10.0,South,8.1,-,N/A,,Mostly Cloudy,170,2012-12-03 17:56:00
11:56 AM,31.1,24.1,75,30.18,10.0,SSE,6.9,-,N/A,,Mostly Cloudy,150,2012-12-03 18:56:00
12:56 PM,32.0,23.0,69,30.19,10.0,South,10.4,-,N/A,,Overcast,190,2012-12-03 19:56:00
1:56 PM,32.0,23.0,69,30.20,10.0,South,8.1,-,0.00,,Overcast,190,2012-12-03 20:56:00
2:56 PM,31.1,24.1,75,30.20,10.0,SSE,9.2,-,0.00,,Overcast,160,2012-12-03 21:56:00
3:12 PM,30.2,24.8,80,30.19,10.0,SSE,9.2,-,0.00,,Overcast,160,2012-12-03 22:12:00
3:34 PM,30.2,24.8,80,30.20,10.0,SE,10.4,-,0.00,,Overcast,130,2012-12-03 22:34:00
3:56 PM,30.0,25.2,82,30.22,10.0,SE,5.8,-,0.00,,Overcast,140,2012-12-03 22:56:00
4:56 PM,30.0,24.1,79,30.23,10.0,SE,10.4,-,0.00,,Overcast,140,2012-12-03 23:56:00
5:56 PM,30.0,25.2,82,30.25,10.0,ESE,6.9,-,N/A,,Overcast,120,2012-12-04 00:56:00
6:56 PM,30.0,23.0,75,30.28,10.0,SSE,8.1,-,N/A,,Overcast,150,2012-12-04 01:56:00
7:56 PM,29.1,23.0,78,30.29,10.0,SSE,5.8,-,N/A,,Overcast,150,2012-12-04 02:56:00
8:56 PM,28.0,22.1,78,30.29,10.0,SE,5.8,-,N/A,,Mostly Cloudy,140,2012-12-04 03:56:00
9:56 PM,26.1,21.0,81,30.30,10.0,SE,4.6,-,N/A,,Mostly Cloudy,130,2012-12-04 04:56:00
10:56 PM,25.2,19.0,78,30.29,10.0,East,5.8,-,N/A,,Clear,100,2012-12-04 05:56:00
11:56 PM,24.1,19.0,81,30.30,10.0,ENE,3.5,-,N/A,,Clear,70,2012-12-04 06:56:00